Location: Green River State Wildlife Area
(41.6390°N, 89.5080°W)
Time: 23:33:08
(UTC-05:00)

Daily predictions for brighter satellites

Satellite Brightness Start Highest point End
(mag) Time Altitude Azimuth Time Altitude Azimuth Time Altitude Azimuth
CENTAUR R/B 3.2 20:40:17 10° NW 20:48:10 86° NE 20:56:31 10° SE
Cosmos 2056 Rocket 3.7 20:43:15 10° S 20:48:11 47° ESE 20:53:05 10° NNE
Cosmos 1371 Rocket 4.0 20:45:05 10° S 20:50:21 69° ESE 20:55:37 10° NNE
Cosmos 1674 Rocket 4.3 20:49:34 10° N 20:53:44 38° ENE 20:57:52 10° SE
NOSS 2-2 (D) 3.5 20:59:09 10° SSW 21:03:13 71° ESE 21:07:55 10° NE
COSMOS 2406 3.3 20:57:30 10° NNW 21:03:18 77° ENE 21:09:00 10° SSE
ATLAS 5 CENTAUR R/B 2.5 20:57:59 10° NW 21:04:02 86° NE 21:10:29 10° SE
SL-27 R/B 2.9 21:02:01 10° N 21:05:36 49° ENE 21:09:05 10° SE
COS B Rocket 4.4 21:03:18 10° NNE 21:06:53 27° E 21:10:08 10° SE
SJ-11-01 4.3 21:05:47 10° SSE 21:10:32 87° ENE 21:15:19 10° NNW
ALOS 3.8 21:08:29 10° SSW 21:12:45 35° W 21:17:04 10° NNW
COSMOS 2487 4.4 21:11:07 10° NNE 21:13:36 17° ENE 21:15:53 11° ESE
NOSS 2-2 (C) 3.6 21:13:49 10° SW 21:17:54 82° NW 21:22:42 10° NE
Cosmos 1238 Rocket 3.8 21:15:36 10° NNE 21:18:12 22° E 21:20:11 14° ESE
Coronas F rocket 2.3 21:15:51 10° SSW 21:18:25 47° W 21:21:00 10° N
Cosmos 2278 Rocket 3.0 21:13:49 10° SSE 21:18:37 29° ESE 21:23:28 10° NE
EO 1 Delta rocket 4.5 21:12:57 10° NNE 21:19:14 55° E 21:24:16 10° S
Meteor 1-10 Rocket 4.3 21:14:50 10° N 21:20:43 87° E 21:26:26 10° S
Cosmos 1844 4.0 21:16:37 10° S 21:22:07 49° ESE 21:27:41 10° NE
SPOT 5 3.4 21:17:34 10° SSE 21:22:38 54° ENE 21:27:51 10° N
Cosmos 1975 Rocket 4.3 21:19:06 10° NNE 21:22:40 25° ENE 21:25:16 15° ESE
SL-08 ROCKET BODY 4.4 21:17:43 10° S 21:23:46 88° W 21:29:45 10° N
Cosmos 1825 3.1 21:21:19 12° SSE 21:24:14 30° E 21:27:36 10° NNE
ISS -1.9 21:21:54 10° S 21:24:16 19° SE 21:25:57 13° E
Envisat 3.0 21:20:34 10° SSE 21:25:38 79° ENE 21:30:45 10° N
Cosmos 1844 Rocket 2.6 21:21:09 10° SSW 21:26:46 72° ESE 21:32:25 10° NNE
Cosmos 1624 Rocket 4.4 21:22:04 10° SSW 21:27:19 70° WNW 21:32:38 10° NNE
Cosmos 1862 3.8 21:24:08 10° SSE 21:27:57 41° E 21:31:49 10° NNE
Terra 3.9 21:26:25 10° E 21:28:22 12° ENE 21:30:19 10° NE
deb Chang Zheng 4 3.6 21:26:40 10° NNE 21:31:06 83° ESE 21:35:32 10° SSW
ERBS 3.3 21:27:51 10° WNW 21:31:09 41° SW 21:33:42 15° SSE
YAOGAN 6 3.3 21:29:22 18° SE 21:31:31 35° ENE 21:34:45 10° N
Cosmos 1408 3.2 21:29:47 15° SSE 21:32:26 36° E 21:35:49 10° NNE
Cosmos 1908 Rocket 3.6 21:28:09 10° S 21:32:27 58° E 21:36:49 10° NNE
Cosmos 2154 Rocket 4.0 21:27:44 10° S 21:33:51 63° E 21:39:59 10° NNE
Cosmos 1733 Rocket 3.8 21:32:14 10° SSW 21:36:34 55° W 21:40:53 10° N
Cosmos 2082 Rocket 3.8 21:33:11 10° N 21:37:28 21° NE 21:41:14 12° E
Cosmos 1378 Rocket 3.7 21:33:14 10° N 21:37:29 54° E 21:40:33 18° SSE
H-2A R/B 3.7 21:34:39 13° ESE 21:37:47 21° ENE 21:41:39 10° NNE
MetOp-A 4.2 21:34:31 14° SSE 21:39:04 65° ENE 21:44:23 10° N
USA 245 3.9 21:40:07 22° ESE 21:41:32 33° ENE 21:44:59 10° N
SL-8 R/B 4.2 21:37:14 10° WSW 21:42:01 65° NNW 21:46:49 10° ENE
PSLV R/B 4.3 21:38:57 10° W 21:42:06 33° SSW 21:43:37 22° SSE
Cosmos 1242 Rocket 3.8 21:39:31 10° NNE 21:42:38 26° ENE 21:43:56 21° ESE
GPS 2-05 Rocket1 4.3 21:40:28 10° SW 21:43:16 21° SSE 21:43:27 21° SSE
Cosmos 407 Rocket 3.6 21:38:47 10° NNW 21:44:04 82° WSW 21:48:30 15° SSE
STPSAT 2 (USA 217) 4.5 21:41:07 10° SSW 21:45:34 72° ESE 21:50:03 10° NNE
BREEZE-M DEB (TANK) 3.9 21:43:50 10° W 21:45:41 22° SSW 21:47:09 17° S
ERS-1 Rocket 4.1 21:44:08 10° S 21:48:52 41° W 21:53:39 10° NNW
Cosmos 2084 3.3 21:45:29 10° SSW 21:49:12 48° ESE 21:52:54 10° NE
Meteor 1-27 Rocket 3.7 21:44:42 10° N 21:50:19 89° WSW 21:55:04 14° S
Cosmos 1452 Rocket 3.4 21:46:00 10° SSW 21:51:15 76° ESE 21:56:32 10° NNE
SPOT 1/Viking Rocket 3.7 21:49:14 20° SE 21:52:41 57° ENE 21:57:48 10° N
SL-08 RB Rocket 4.4 21:51:07 23° SE 21:53:29 39° ENE 21:57:48 10° N
Cosmos 1782 4.0 21:51:31 10° NNW 21:55:19 41° W 21:59:06 10° SSW
Cosmos 1140 Rocket 3.9 21:50:32 10° N 21:55:31 48° ENE 21:58:17 24° SE
Cosmos 1939 Rocket 4.4 21:56:12 10° SSW 21:59:41 32° W 22:03:14 10° NNW
Cosmos 1606 3.2 21:56:48 10° NNW 22:00:41 60° W 22:03:33 17° S
H-2A R/B 3.2 21:58:25 10° S 22:02:31 40° W 22:06:32 10° NNW
NOAA 11 4.3 21:59:37 23° SE 22:03:00 62° ENE 22:08:26 10° N
UNK 4.4 22:00:41 10° NNE 22:06:58 84° ESE 22:12:57 10° SSW
Atlas Centaur 2 3.3 22:05:33 10° SW 22:06:28 12° SSW 22:06:28 12° SSW
USA 234 3.6 22:02:08 10° ENE 22:08:12 39° SE 22:14:13 10° SSW
CZ-4B R/B 3.3 22:04:38 10° NNE 22:09:37 69° ESE 22:13:01 19° S
CZ-4 R/B 3.8 22:11:27 10° NNE 22:16:05 58° ESE 22:18:11 30° SSE
Cosmos 1184 Rocket 3.3 22:18:33 25° SSW 22:20:17 60° WNW 22:23:36 10° N
Cosmos 1850 Rocket 4.1 22:19:02 10° NNW 22:24:20 66° ENE 22:26:29 36° SE
BREEZE-M DEB (TANK) 4.0 22:23:17 10° NW 22:24:56 19° N 22:27:16 10° NE
Okean 2 Rocket 3.2 22:22:51 22° SSW 22:25:42 76° W 22:30:08 10° N
Cosmos 2218 Rocket 4.0 22:25:46 26° SSE 22:29:27 67° E 22:35:49 10° NNE
IGS 5A 4.0 22:32:35 38° E 22:33:11 41° ENE 22:37:07 10° N
DELTA 2 DEB (DPAF) 4.1 22:36:15 48° SSE 22:37:26 76° ENE 22:41:55 10° N
SL-08 R/B 4.5 22:34:07 28° S 22:37:43 75° E 22:44:11 10° N
Meteor 1-25 Rocket 4.5 22:39:52 39° SE 22:41:38 53° E 22:47:17 10° NNE
Cosmos 1741 Rocket 3.9 22:38:14 10° NNW 22:43:30 87° WSW 22:45:10 45° SSE
ARGOS 3.6 22:42:39 28° SSW 22:45:21 56° W 22:50:38 10° NNW
Cosmos 1727 Rocket 4.0 22:39:41 10° N 22:45:51 68° E 22:48:04 40° SSE
COSMOS 2487 4.0 22:46:07 10° NW 22:49:17 29° WSW 22:49:57 27° WSW
Landsat 7 3.8 22:48:20 47° S 22:49:42 79° WSW 22:54:29 10° NNW
Cosmos 1959 Rocket 4.4 22:46:48 28° S 22:50:16 85° W 22:56:25 10° N
Meteor 1-18 Rocket 4.3 22:46:06 10° N 22:52:01 73° E 22:53:54 45° SSE
USA 229 DEB 3.9 22:46:05 10° NNW 22:53:10 67° NE 22:56:14 36° ESE
USA 229 3.9 22:46:11 10° NNW 22:53:16 66° NE 22:56:21 36° ESE
Meteor 1-14 Rocket 4.3 22:50:48 27° SSW 22:54:03 74° W 22:59:41 10° N
Cosmos 1331 Rocket 4.5 22:58:07 40° E 22:58:07 40° E 23:02:42 10° NE
APEX 3.9 22:57:54 33° SW 22:59:33 61° WNW 23:04:30 10° NNE
ISS -1.7 22:57:16 10° WSW 23:05:23 - NE 22:59:03 28° W
DNEPR-1 R/B 3.9 22:55:42 10° NW 23:00:56 59° WSW 23:01:40 51° SSW
CARTOSAT-1 3.5 23:01:47 68° SSW 23:02:15 79° WSW 23:06:35 10° NNW
Cosmos 2278 Rocket 3.4 22:57:11 10° SW 23:02:31 40° WNW 23:07:52 10° N
Cosmos 1110 Rocket 4.1 23:02:20 52° ESE 23:02:33 52° ESE 23:07:36 10° NNE
Timation 2 Rocket 4.2 22:56:54 10° NNW 23:02:46 57° WSW 23:04:45 39° SSW
Cosmos 1833 Rocket 2.6 22:59:23 10° NNW 23:05:02 75° ENE 23:06:17 54° SE
Terra 1.8 23:04:36 60° S 23:05:26 79° WSW 23:10:14 10° NNW
Spot 4 3.7 23:08:31 67° SSE 23:09:11 85° ENE 23:14:05 10° NNW
Meteor 2-19 Rocket 4.4 23:11:00 44° S 23:13:08 89° WNW 23:19:17 10° N
Cosmos 1339 Rocket 4.4 23:07:01 10° N 23:13:11 90° WSW 23:14:58 50° S
Cosmos 1536 Rocket 3.7 23:09:01 10° NNW 23:13:28 64° W 23:13:54 60° SW
Cosmos 1812 3.0 23:12:21 10° N 23:15:44 66° N 23:15:44 66° N
H-2A R/B 2.5 23:15:17 42° SSW 23:16:46 56° W 23:22:02 10° NNW
ASTEX 1 3.2 23:13:19 10° N 23:18:17 77° E 23:18:38 73° SE
Lacrosse 5 4.1 23:22:40 13° ENE 23:22:40 13° ENE 23:23:14 10° ENE
Cosmos 2082 Rocket 2.3 23:16:24 10° NNW 23:22:02 64° WSW 23:23:06 54° SSW
Cosmos 1821 Rocket 4.4 23:21:37 43° ESE 23:22:19 45° E 23:28:12 10° NNE
Meteor 1-11 Rocket 4.1 23:22:41 47° ESE 23:22:59 47° E 23:28:31 10° NNE
Timation 1 Rocket 4.2 23:22:05 55° S 23:23:25 77° ESE 23:29:26 10° NNE
Cosmos 1486 Rocket 4.4 23:20:16 10° N 23:25:30 51° ENE 23:26:01 49° E
Gbstr 26 Del rocket 4.1 23:26:02 10° NW 23:30:34 39° NNE 23:31:25 35° NE
Cosmos 1934 Rocket 4.2 23:38:39 49° E 23:38:58 50° E 23:44:47 10° NNE
Cosmos 1536 4.4 23:43:44 28° NE 23:43:44 28° NE 23:45:58 10° NNE
NOSS 3-1 (C) 4.3 23:35:30 10° NNW 23:42:55 59° NE 23:46:10 37° ESE
CZ-3 Stage 3 4.4 23:10:18 10° W 23:43:58 42° SSW 23:45:23 40° S
Cosmos 1400 Rocket 4.1 23:45:55 35° NE 23:45:55 35° NE 23:48:32 10° NNE
Meteor 2-21 Rocket 4.4 23:47:14 62° ESE 23:47:43 64° E 23:53:52 10° NNE
ALOS 2 3.9 23:49:23 32° NE 23:49:23 32° NE 23:52:46 10° N
USA 234 3.6 23:44:56 10° NE 23:51:22 63° NW 23:57:47 10° WSW
